Theta_e
339 340 342 343 344 344 343 341 340 339 338 338 337 336 334 332 330 330 328 327 327 328 328 331 336 339 338 337 336 334 332 333 336 337 337 337 336 336 335 335 333 332 332 333 333 332 332 332 333 334 332 328 320 315 315 316 319 319 316 315 315 314 315 315 315 315 315 315 315 314 314 314 314 314 314 314 314 315 314 315 315 314 314 314 313
340 340 341 343 343 343 341 340 339 338 338 337 336 335 333 331 330 330 329 326 327 328 328 329 331 334 334 333 332 332 332 334 336 336 336 336 335 334 332 331 330 329 328 328 329 329 330 331 331 331 330 324 318 316 315 314 317 318 315 315 315 315 314 315 314 315 315 315 314 314 314 314 314 314 314 314 314 314 315 315 314 314 314 313 313
340 339 341 342 342 343 340 339 338 338 337 337 336 334 332 330 331 331 329 327 328 329 329 329 329 329 330 331 332 333 333 335 335 335 335 335 334 331 329 328 327 326 325 325 325 326 327 329 327 326 325 321 317 316 315 313 316 317 314 314 315 314 314 314 315 315 315 315 314 314 314 314 314 314 314 314 314 314 314 314 313 313 314 313 313
339 339 341 341 341 342 340 338 338 338 337 336 336 333 330 331 332 332 329 328 329 329 330 329 328 329 330 332 333 334 334 334 335 334 334 333 331 328 325 323 322 321 321 322 323 323 324 325 326 325 323 321 316 315 316 314 317 315 312 314 315 314 314 314 315 315 315 314 314 314 314 314 314 314 314 314 314 314 314 314 313 314 314 313 312
338 338 341 341 340 342 340 339 338 338 337 337 336 332 330 332 333 331 328 328 329 330 331 329 326 326 327 330 332 334 333 334 334 332 331 329 327 324 323 322 321 319 319 321 321 322 321 324 328 329 325 322 317 316 316 315 316 314 311 314 314 314 313 314 314 314 315 314 314 314 314 314 314 314 314 314 314 314 314 314 314 313 314 313 312
338 336 340 341 340 341 340 339 339 338 337 337 335 332 331 332 332 331 328 329 330 330 332 330 326 324 325 327 328 331 332 333 331 327 327 326 326 326 326 325 324 322 321 321 321 320 320 325 331 332 330 325 319 316 314 313 314 312 311 313 314 314 313 313 314 314 315 314 314 314 314 314 314 314 314 314 314 314 314 314 314 314 313 313 312
338 334 336 340 341 340 340 339 339 339 338 338 335 331 331 332 333 331 328 328 330 329 331 332 329 325 325 326 328 330 330 330 327 324 326 327 328 328 328 327 326 325 324 323 321 319 319 326 332 332 332 329 322 315 312 311 311 311 311 313 314 315 314 313 313 313 314 314 314 314 314 314 314 314 314 314 314 314 314 314 314 314 313 313 313
338 334 332 334 339 341 340 339 339 339 338 338 336 332 331 332 333 331 329 328 329 329 330 331 331 328 325 326 328 329 329 328 326 325 328 329 329 329 329 328 328 327 327 326 323 318 316 323 331 332 331 330 324 314 311 310 310 311 312 313 314 315 314 313 313 313 314 314 314 313 314 314 314 314 314 314 314 314 314 314 314 314 313 312 313
337 336 332 329 334 338 339 339 340 340 339 338 336 332 331 332 333 332 330 329 329 329 329 329 330 330 329 327 327 328 328 328 329 329 330 330 331 330 329 329 328 328 328 328 325 319 315 321 328 330 330 328 324 315 311 311 311 312 313 314 314 315 313 313 312 313 314 314 314 313 314 313 314 314 314 314 314 314 314 314 314 314 313 313 313
338 337 334 329 330 335 338 339 340 340 339 339 337 333 331 331 332 332 331 330 329 329 329 329 329 330 330 329 328 328 328 329 330 331 331 331 331 330 328 327 327 327 327 328 326 318 314 318 323 326 328 327 323 318 316 314 314 314 313 314 313 313 311 311 312 312 313 314 313 313 313 314 313 314 314 314 314 314 314 314 314 314 313 313 314
339 337 334 331 329 333 337 338 339 340 340 338 338 335 332 331 331 332 332 331 329 330 330 329 330 329 329 329 329 329 329 330 331 332 332 331 331 330 328 326 326 326 326 327 326 320 314 314 318 320 324 324 321 320 319 316 315 314 313 312 312 310 310 310 310 311 312 313 313 313 313 314 313 314 314 313 314 314 314 314 314 314 313 314 314
339 338 336 333 329 332 336 338 338 340 340 338 338 337 334 330 330 331 331 331 331 330 330 330 330 329 328 328 328 329 331 330 332 333 333 332 332 331 329 326 326 326 326 326 326 323 318 317 319 320 318 319 322 323 319 317 318 316 314 312 311 309 309 309 309 310 311 313 313 313 313 313 314 313 313 313 313 313 313 313 314 314 313 314 315
340 339 337 334 330 329 333 336 338 339 339 338 338 338 336 332 330 330 330 331 331 331 331 331 330 329 328 328 327 329 331 330 332 333 333 332 332 331 328 327 326 327 326 325 326 326 324 322 325 324 318 317 322 323 319 320 322 320 317 315 313 311 310 310 310 310 311 313 313 313 313 313 313 313 313 313 313 313 313 313 313 313 314 314 314
340 339 337 334 329 328 330 333 335 336 339 339 339 339 337 335 331 330 330 330 331 331 331 331 331 330 329 329 327 328 329 329 330 331 332 332 331 330 328 326 326 327 326 325 325 327 327 326 325 324 320 317 317 318 318 322 324 324 321 317 315 315 313 313 312 310 310 312 312 312 313 313 313 313 313 313 313 313 313 313 314 313 314 315 314
340 339 336 333 330 329 331 332 333 334 338 339 339 339 338 338 335 331 330 330 331 330 330 331 331 331 330 329 327 327 327 327 328 329 329 328 329 329 329 326 325 326 326 324 323 325 328 327 325 322 321 319 315 314 316 321 325 326 324 319 317 317 316 314 313 311 310 310 310 311 312 312 313 312 312 312 313 313 313 313 313 313 314 314 314
340 339 336 335 333 331 331 332 333 335 338 340 340 339 339 339 338 335 333 331 331 331 330 330 330 331 330 329 328 326 327 327 327 328 327 326 326 327 328 326 325 325 326 325 323 322 325 326 325 322 322 321 319 316 315 318 324 327 325 321 318 318 318 317 314 312 310 310 309 310 310 311 312 312 312 313 313 313 313 313 313 313 314 314 313
339 338 335 336 337 333 331 331 331 334 337 339 339 339 339 339 340 339 336 333 332 332 332 331 330 330 330 330 329 327 327 327 326 327 326 325 325 325 326 324 324 324 323 325 324 322 323 324 324 323 323 323 321 320 317 317 323 327 326 322 320 319 319 318 316 313 311 310 309 309 309 309 310 311 312 312 312 312 311 311 313 313 313 313 312
339 337 335 337 338 334 330 329 329 331 334 336 337 338 338 338 338 339 338 337 335 333 332 332 330 330 330 329 329 328 327 327 326 327 325 323 324 323 324 322 322 323 321 323 324 322 323 324 323 323 325 325 324 323 320 318 321 326 326 323 322 321 320 320 318 314 311 310 309 309 309 308 309 310 311 311 311 311 310 310 311 312 312 312 311
338 336 335 335 336 333 330 329 328 328 332 333 334 335 337 336 337 337 337 338 338 335 334 333 331 330 330 330 330 329 328 328 326 326 325 324 323 323 323 322 321 321 320 320 321 323 324 324 324 322 323 325 326 326 324 320 318 323 325 324 324 323 321 321 319 316 312 310 309 309 308 309 308 310 310 310 310 310 309 309 310 311 311 310 311
338 335 335 335 334 333 332 330 329 327 329 332 333 333 335 336 335 336 336 336 338 337 335 333 333 331 330 330 331 330 330 329 327 327 326 323 322 321 322 321 319 320 319 317 318 322 324 325 325 323 322 321 323 326 326 324 320 320 323 325 325 325 323 322 320 317 314 311 309 309 308 309 308 309 310 309 309 309 309 309 310 310 310 310 310
337 336 335 336 335 334 333 331 330 329 329 332 332 332 332 333 333 333 333 334 335 337 336 334 333 331 330 330 331 330 330 329 326 327 324 321 319 317 318 320 320 320 319 319 318 320 322 324 325 325 324 320 318 321 326 327 325 321 321 325 326 325 325 324 320 317 316 314 310 309 308 308 308 308 309 309 308 309 309 309 309 310 309 310 309
337 336 337 336 336 335 336 334 333 332 331 332 333 333 332 332 332 331 332 333 334 336 336 334 332 330 329 329 329 329 329 327 325 326 323 319 318 316 317 320 322 322 321 323 323 321 322 323 325 326 325 322 317 316 323 327 326 324 321 323 325 326 326 325 322 319 318 317 313 310 308 307 307 308 308 308 308 309 309 309 309 309 310 310 309
337 337 337 338 337 336 337 335 333 334 333 333 333 334 333 331 333 332 332 333 334 335 334 332 330 329 329 328 328 327 325 323 324 326 324 321 321 321 322 322 322 323 322 324 324 322 322 321 323 327 326 324 320 316 322 327 327 326 325 323 323 326 327 325 323 322 321 320 317 312 309 308 307 307 307 307 308 308 308 309 309 309 309 309 309
337 337 337 338 338 337 338 334 330 332 333 333 332 334 334 332 332 333 332 332 333 334 333 331 329 329 328 329 327 322 321 322 325 327 325 325 326 327 327 326 324 324 323 324 324 322 321 322 323 326 327 326 323 317 321 327 327 327 328 326 324 325 328 326 323 323 323 322 320 316 312 309 307 306 306 306 307 307 308 308 308 308 307 308 307
337 337 338 338 338 336 335 331 329 330 331 331 331 332 333 333 333 333 331 331 333 332 331 331 329 328 328 328 324 319 320 324 326 327 327 328 328 329 328 327 326 325 325 325 325 324 321 322 323 325 327 328 326 321 321 326 327 327 329 328 326 325 328 327 324 323 324 323 322 318 315 311 309 308 306 306 306 306 307 307 307 307 306 306 306
336 337 337 336 335 333 330 328 328 328 330 330 330 331 331 332 333 332 332 331 332 330 330 330 327 327 328 326 322 318 319 323 325 326 329 330 330 331 329 327 326 326 326 325 326 325 322 321 323 324 325 327 328 326 323 324 326 327 328 328 327 326 327 328 325 323 324 323 322 320 317 314 312 310 308 306 306 306 306 306 306 306 306 306 306
332 333 333 331 329 328 326 325 325 325 326 328 329 330 331 331 331 331 332 331 331 330 329 329 326 326 327 326 324 321 318 320 323 325 328 329 330 330 329 327 325 326 326 324 325 324 320 318 321 323 324 324 326 328 326 325 325 326 327 327 327 326 327 327 325 324 325 324 322 320 318 316 314 312 310 309 308 307 306 306 306 306 306 305 305
327 326 324 322 321 321 319 319 319 320 321 323 324 325 327 329 329 330 331 331 331 331 330 328 328 328 327 328 327 323 318 320 322 325 327 328 330 329 327 327 325 325 326 324 324 323 317 315 318 322 323 323 324 327 328 327 325 325 327 327 326 327 327 326 325 325 325 323 322 320 318 316 315 313 312 311 309 309 308 306 306 305 305 305 305
322 320 319 318 317 317 316 316 316 316 316 316 317 317 319 323 328 330 330 331 331 331 330 327 327 329 329 329 329 325 322 322 322 324 328 329 331 330 327 327 325 324 325 323 324 323 317 313 315 320 322 322 323 324 327 328 326 325 325 325 325 327 327 326 325 324 324 322 321 320 319 318 316 315 314 313 311 310 309 309 308 306 306 305 305
319 319 318 317 316 316 317 317 316 315 315 315 314 313 313 316 323 329 330 330 331 331 329 326 324 325 327 328 326 326 325 324 323 323 328 330 331 331 328 327 326 323 322 323 323 322 317 313 314 318 320 320 321 322 324 327 328 326 325 323 323 326 327 326 325 324 323 321 320 320 319 319 319 317 316 315 314 313 312 312 311 310 309 307 306
319 318 318 316 316 317 317 317 317 317 316 316 314 313 313 314 318 326 329 329 330 331 330 327 323 321 323 326 326 326 326 325 325 326 329 330 330 332 330 328 327 324 321 323 323 322 318 313 313 315 317 319 319 321 324 326 327 326 325 323 322 325 327 326 325 323 322 321 320 320 320 321 322 321 319 318 316 315 315 314 314 313 312 311 310
319 318 317 316 315 316 316 317 318 318 317 317 314 313 314 315 316 321 327 329 330 330 330 327 323 323 324 326 327 327 326 324 324 326 327 328 330 332 330 327 327 324 321 323 323 322 320 314 314 316 318 320 322 323 324 326 325 325 325 323 321 323 326 327 325 323 322 321 321 321 321 323 324 325 323 321 320 318 318 317 316 316 315 314 313
319 318 316 315 314 314 314 315 316 316 316 315 313 313 315 317 316 319 324 327 329 330 331 328 324 325 325 324 326 326 326 325 325 326 326 328 330 331 330 327 325 324 322 322 322 323 323 318 316 319 320 323 325 325 325 325 325 325 325 324 322 321 324 326 326 324 324 323 322 322 323 325 326 327 326 324 323 322 321 321 320 319 318 317 315
319 318 315 314 313 313 313 313 313 313 313 312 311 313 316 319 319 320 321 325 328 329 330 329 326 327 326 325 325 324 325 326 326 326 326 327 329 330 330 327 325 325 323 322 323 323 324 322 319 322 323 324 326 326 326 326 326 326 325 325 323 321 323 325 326 326 325 323 322 323 324 325 326 327 327 327 326 325 324 324 323 322 321 320 318
319 317 315 314 313 313 313 312 311 311 310 309 310 311 315 319 321 322 323 324 326 327 328 328 328 328 329 328 328 327 326 326 326 326 326 325 327 329 329 328 327 326 324 323 323 323 323 324 323 323 324 325 326 327 327 326 326 326 325 324 323 322 322 324 325 325 323 322 322 324 325 326 326 327 327 327 327 327 326 325 325 324 324 323 321
320 319 317 315 314 314 313 312 311 310 309 309 309 310 313 316 318 320 321 321 322 323 323 324 325 326 327 328 328 328 327 327 327 327 328 326 326 328 328 329 329 327 325 324 323 323 323 324 324 324 325 326 326 327 327 326 326 326 325 324 323 322 321 322 323 322 321 322 324 325 326 327 327 327 327 327 328 327 327 327 326 326 325 325 323
319 320 319 317 315 314 314 312 311 310 309 308 308 310 311 314 315 317 318 319 320 320 320 321 321 322 324 325 325 325 325 326 327 327 328 327 326 327 328 329 329 327 326 326 325 325 324 324 324 324 325 325 326 327 327 327 327 326 326 324 323 321 320 321 322 323 324 324 325 325 325 326 326 326 327 327 328 328 328 327 327 327 326 326 325
319 319 319 318 317 316 314 312 311 310 308 308 308 308 309 310 313 315 317 318 319 319 320 320 320 320 321 321 322 323 324 324 325 326 327 327 327 327 328 329 329 328 328 327 327 327 326 326 326 326 325 325 326 326 327 328 328 327 326 325 324 322 322 323 325 325 326 326 326 326 326 326 325 325 325 326 327 327 328 328 328 327 327 327 326
320 319 319 319 318 316 314 312 310 309 308 308 307 306 306 307 308 311 313 315 316 316 318 319 319 319 319 319 320 320 321 321 323 324 324 325 326 327 327 328 328 329 329 328 328 328 327 327 328 327 327 327 325 325 326 327 328 328 327 326 326 325 324 325 325 326 326 327 327 327 327 327 326 326 326 325 323 323 324 326 328 328 327 327 327
320 320 319 319 318 317 313 311 310 309 309 308 307 306 305 305 305 307 309 311 312 313 313 314 314 313 314 315 315 314 314 315 316 319 320 321 323 324 326 328 328 328 329 329 329 328 327 328 326 324 325 327 326 326 327 327 328 328 328 327 326 326 326 325 325 326 326 327 328 328 328 328 327 327 326 325 324 321 320 322 325 326 327 327 327
320 320 319 319 319 316 313 310 310 309 308 308 307 307 306 305 305 307 308 307 308 308 307 307 307 307 307 307 308 308 307 307 308 310 314 316 318 320 322 324 324 325 327 328 328 328 327 327 325 322 323 324 324 326 327 327 327 327 326 326 327 327 327 326 326 326 326 327 328 328 328 329 328 327 326 325 325 324 323 322 321 322 325 327 328
320 320 319 319 318 317 313 311 310 309 308 308 307 307 308 307 306 306 306 306 306 306 306 306 305 305 305 305 305 305 304 304 304 305 308 311 313 316 317 317 318 321 324 325 326 327 327 327 327 326 324 322 324 327 326 325 324 324 325 324 325 326 326 326 326 327 327 327 328 328 328 329 329 329 328 328 326 325 325 325 324 322 322 324 326
320 320 319 319 318 316 312 310 311 309 308 307 307 308 309 308 307 306 306 306 307 306 306 306 306 306 305 305 305 305 304 303 303 303 305 308 310 313 315 316 316 317 318 319 321 324 326 327 328 327 325 325 327 326 322 323 324 323 324 325 325 325 326 326 326 326 326 326 327 328 328 328 328 329 329 329 328 327 326 325 325 324 323 322 322
320 319 319 319 318 317 312 310 311 309 309 308 308 309 309 307 307 307 307 307 307 307 307 306 306 306 306 306 306 305 304 303 302 302 303 305 307 310 313 316 317 317 316 316 317 321 323 325 325 326 327 328 328 324 322 323 323 322 324 326 326 325 326 325 324 323 322 324 327 328 328 328 329 329 329 329 329 328 328 326 325 324 324 324 323
320 319 319 319 318 317 313 310 311 309 309 309 309 310 309 308 307 307 308 307 307 307 307 307 307 307 306 306 306 305 304 303 302 302 302 303 305 307 311 314 316 317 317 316 316 318 320 321 323 324 326 327 326 326 326 325 324 323 325 327 327 327 327 325 322 321 321 322 324 326 328 327 328 328 328 328 328 328 327 327 326 325 324 324 324
320 320 320 319 318 318 313 311 310 310 309 310 310 310 309 308 308 308 308 308 308 308 308 308 308 307 307 306 306 305 304 304 303 302 302 303 304 305 308 310 311 311 311 311 311 312 314 317 320 322 323 324 324 325 326 326 326 325 326 327 327 327 327 326 323 321 321 321 322 325 327 327 327 327 327 327 327 327 327 327 326 326 326 325 325
320 320 320 319 318 318 314 311 311 310 310 310 310 310 310 308 308 308 308 308 308 308 308 308 308 308 307 306 306 305 305 304 304 303 303 303 304 305 306 307 307 308 308 308 307 308 309 312 316 318 320 322 322 323 325 325 325 326 326 326 326 327 327 326 324 323 323 324 324 325 326 326 327 327 327 327 327 326 326 326 325 325 326 327 327
320 320 320 319 318 318 315 312 311 310 310 311 311 310 310 309 308 308 308 308 308 309 309 309 308 308 307 307 306 305 305 304 304 303 303 303 304 305 306 306 306 306 307 307 307 308 308 310 312 314 316 318 319 321 321 322 323 325 326 326 326 326 325 325 325 325 325 325 325 324 324 325 326 327 326 326 326 326 325 325 325 325 325 326 327
320 320 320 319 318 318 316 313 311 310 310 311 311 311 310 309 308 308 308 308 309 309 309 309 309 308 308 307 307 306 305 305 304 304 303 303 303 304 304 304 304 304 304 304 304 305 305 306 307 309 311 313 315 316 317 318 319 321 322 323 323 324 324 324 324 324 325 325 325 324 323 322 323 324 326 326 325 325 325 325 324 324 324 325 325
320 320 320 319 318 317 317 314 312 311 311 312 312 311 310 310 308 308 308 309 309 309 309 309 310 309 308 308 307 307 306 305 305 304 304 304 303 303 303 303 303 303 303 303 303 303 303 303 303 304 305 307 309 311 312 313 314 314 315 316 317 317 318 319 320 320 322 323 323 323 323 322 321 321 321 322 324 323 323 322 322 322 323 325 326
320 320 320 319 318 318 317 315 313 311 312 312 312 312 311 310 309 308 308 309 309 309 309 309 310 310 309 308 308 307 306 306 305 305 305 304 304 304 304 304 304 304 303 303 303 303 302 303 302 302 302 303 304 305 307 309 310 310 310 310 311 311 310 311 312 313 315 318 320 320 321 321 321 320 319 318 318 319 320 319 319 319 320 323 324
Wind_Speed
19 17 15 15 17 17 17 18 16 15 14 13 12 12 11 10 10 9 9 9 10 13 15 17 18 19 17 16 14 13 13 12 13 14 13 13 13 14 14 13 13 11 11 10 10 9 9 9 9 10 9 7 7 6 6 5 6 6 9 13 16 16 15 16 18 18 18 17 16 17 18 19 19 19 18 18 18 18 18 17 17 18 19 19 18
21 19 16 16 18 18 17 18 16 15 14 13 13 13 12 11 10 9 9 9 10 13 15 16 17 18 17 16 14 14 13 13 13 13 12 12 12 13 13 12 11 10 10 9 9 9 9 9 9 9 8 8 7 6 6 6 5 6 8 12 15 15 14 16 18 18 19 18 16 16 17 17 17 17 17 16 16 16 16 15 15 16 17 17 16
21 20 17 16 18 18 18 17 16 15 14 14 14 13 12 11 10 9 9 9 11 12 14 16 16 16 15 15 14 14 14 14 13 12 11 11 11 12 11 11 10 9 8 8 8 9 9 9 9 9 8 7 8 8 7 6 6 6 7 11 15 15 14 15 17 18 18 17 16 16 16 16 16 16 15 15 14 14 14 14 14 15 15 15 14
20 20 18 16 17 18 18 17 16 15 15 15 14 14 13 12 10 9 9 10 11 12 13 14 15 15 15 15 14 14 14 13 13 11 11 10 10 10 10 9 8 8 7 7 7 7 8 9 9 9 8 8 8 9 8 7 7 7 7 10 14 15 14 14 16 18 17 17 16 15 15 15 15 14 14 14 13 12 12 12 12 13 13 13 13
20 20 19 17 17 17 18 17 17 16 16 15 15 15 14 12 10 9 9 10 11 12 13 14 14 15 15 14 14 14 13 13 12 11 11 11 10 10 9 8 7 7 6 6 6 7 7 8 9 9 10 9 9 10 9 8 8 8 7 10 14 14 14 13 15 17 17 17 16 15 15 14 13 13 12 12 11 11 11 11 11 11 11 11 11
20 20 19 17 16 17 18 17 17 16 16 16 16 16 14 12 11 10 10 11 12 12 13 13 14 15 15 14 14 13 13 12 12 12 12 12 11 9 9 8 7 6 5 5 5 6 7 8 9 10 10 10 10 10 10 10 9 9 8 10 13 14 14 13 13 16 16 16 16 16 15 13 12 12 11 10 10 9 9 9 9 9 9 9 10
20 20 19 18 16 17 19 17 17 17 16 16 16 16 14 12 11 10 11 12 13 13 13 13 14 14 15 15 14 13 13 12 12 13 12 11 10 9 9 8 7 6 6 6 5 5 6 8 9 10 11 11 10 11 11 10 10 10 9 11 13 14 13 13 14 15 15 15 16 16 15 14 12 11 10 9 8 8 8 8 8 8 8 8 9
20 19 18 19 17 17 18 18 17 17 17 16 16 16 15 13 12 11 12 13 14 14 13 13 14 14 14 13 13 13 13 12 12 13 11 10 9 9 8 8 7 7 7 6 5 3 5 8 10 11 11 12 11 12 12 12 11 11 11 12 14 14 14 15 16 16 14 14 15 16 16 14 12 10 9 8 7 6 7 7 6 6 6 7 7
20 18 18 19 18 17 17 18 18 18 18 17 17 16 15 13 12 12 13 14 14 15 14 13 13 13 13 12 11 11 12 11 11 11 10 10 10 9 8 7 7 7 7 6 5 3 4 8 9 11 12 12 12 13 13 13 12 13 13 13 14 15 15 17 17 17 15 13 13 14 15 15 13 11 9 8 7 6 5 6 5 5 5 5 6
19 17 17 17 18 18 17 17 19 20 19 18 17 17 17 15 14 13 13 14 14 15 14 13 13 13 13 12 11 11 12 11 10 10 9 9 9 9 8 7 7 7 6 6 5 3 4 6 8 10 12 12 13 13 13 13 13 13 13 13 14 16 17 18 18 17 15 14 13 13 14 15 14 12 10 9 8 7 6 5 4 4 4 4 5
19 17 17 16 16 18 17 17 18 19 20 20 19 18 18 17 15 15 14 14 14 14 13 12 12 12 12 12 11 12 12 11 10 9 9 8 8 7 7 7 7 6 6 6 6 4 3 5 6 8 11 12 13 13 13 14 15 15 14 14 15 17 18 18 18 17 16 15 14 12 12 13 14 13 11 10 9 8 7 5 4 3 3 3 4
19 17 17 16 16 17 17 16 16 18 19 20 20 20 19 19 17 16 15 14 14 14 13 12 11 11 11 11 10 11 10 10 10 9 9 8 7 7 6 6 6 6 6 6 6 5 4 4 5 6 9 12 12 12 15 17 16 16 16 15 16 16 17 18 17 17 16 15 15 13 12 13 13 13 12 11 10 9 8 7 5 4 3 2 3
19 17 16 15 16 17 18 17 15 16 17 19 20 20 20 20 19 17 16 15 15 14 13 12 11 10 10 10 9 10 9 9 9 9 9 9 8 8 8 6 6 6 6 6 5 5 5 6 7 5 5 10 13 14 17 18 17 17 17 17 16 16 16 16 16 16 16 16 16 15 13 13 13 14 13 12 11 10 9 8 6 5 3 2 2
18 16 15 14 15 16 17 17 16 15 15 18 20 20 20 20 20 19 17 16 15 15 14 12 10 9 9 9 9 9 9 9 9 9 9 8 8 9 9 7 6 7 6 6 5 5 6 7 7 6 4 7 12 15 18 18 17 16 16 17 17 16 14 13 13 14 15 15 15 15 15 13 13 14 14 13 12 11 10 9 8 6 4 2 2
17 16 15 14 15 16 16 16 17 16 14 15 19 20 21 20 20 19 18 17 16 15 14 13 11 9 8 8 8 9 8 8 9 8 8 7 7 8 8 7 7 7 6 6 5 5 6 7 7 6 5 6 9 12 17 18 16 14 15 16 16 15 14 12 11 11 12 13 14 15 15 13 13 14 14 14 14 13 11 10 8 6 4 2 2
16 15 14 15 15 17 16 15 17 16 14 13 14 16 18 20 19 19 19 18 17 16 15 13 11 10 9 8 8 8 9 9 8 7 7 7 7 8 8 7 7 6 6 6 5 5 5 6 7 7 6 6 6 8 12 16 15 13 13 14 15 15 14 12 10 9 9 11 12 13 13 12 12 13 14 15 14 13 11 9 7 6 4 2 2
15 14 14 14 14 15 16 16 16 16 14 12 12 12 13 16 18 19 19 19 18 17 16 15 13 12 11 10 9 8 9 9 8 7 7 8 8 8 8 7 6 7 6 6 6 5 5 6 7 7 7 6 5 5 7 13 13 12 13 13 14 15 14 13 11 10 8 8 9 10 10 10 10 10 10 10 9 8 7 6 4 3 2 1 2
15 13 12 12 12 13 14 14 15 14 12 11 12 12 12 14 16 17 17 18 19 18 17 16 15 14 12 11 10 10 10 9 7 7 7 8 8 8 8 7 6 7 6 7 7 7 6 7 8 9 8 7 6 4 4 8 11 10 11 12 13 13 13 12 11 10 9 8 7 7 8 8 8 8 7 5 4 4 3 2 1 0 0 1 2
15 12 11 12 11 11 12 12 12 12 11 11 10 11 12 13 14 15 15 15 17 18 18 16 15 14 12 11 11 11 11 9 7 8 8 8 7 7 8 7 6 7 7 7 9 9 9 9 10 11 10 9 8 7 5 4 8 9 9 10 11 11 11 11 11 10 9 8 7 6 6 7 7 7 5 5 5 4 2 2 1 1 1 2 2
15 12 12 12 11 11 11 11 11 11 10 10 10 10 11 11 13 13 13 13 15 18 19 17 16 15 13 12 12 12 11 9 8 8 8 7 7 7 7 7 7 7 7 7 8 10 10 11 12 12 12 12 11 10 8 6 5 7 8 9 9 9 9 10 10 10 10 9 8 7 6 6 6 6 6 6 6 6 4 3 1 0 0 1 2
15 13 12 12 11 11 11 10 11 11 11 10 10 10 10 10 11 11 11 12 14 17 19 19 18 16 15 13 13 13 12 10 9 9 7 7 7 8 8 8 8 7 6 6 7 9 10 12 13 13 13 13 14 13 11 9 7 6 7 8 8 8 8 9 10 10 9 8 8 8 7 7 6 6 6 7 7 6 5 4 2 1 1 1 2
15 14 12 12 11 10 10 10 11 10 10 10 10 10 10 11 10 10 10 11 13 15 17 18 18 16 15 13 13 13 12 11 10 9 7 7 7 7 9 8 7 7 6 5 6 8 10 12 14 14 14 13 13 15 13 11 9 7 7 7 6 6 6 8 9 9 9 8 8 8 8 7 6 6 6 7 6 6 6 5 3 2 1 1 1
16 15 12 11 11 10 9 9 10 10 10 10 11 10 10 11 9 9 9 10 13 16 16 17 16 14 14 14 13 11 12 12 11 10 8 7 7 7 9 8 7 7 5 5 6 8 11 13 14 14 15 14 13 15 15 13 11 9 7 6 5 5 6 7 7 8 8 7 7 7 8 8 7 7 6 7 6 6 6 5 4 3 2 1 0
17 15 12 11 10 11 10 9 9 9 10 10 10 11 10 10 9 9 9 10 13 15 16 16 15 14 14 14 12 11 11 12 11 10 8 8 9 8 9 8 7 6 6 6 6 8 11 13 14 14 15 15 14 15 16 14 12 11 9 7 6 5 6 6 7 7 7 7 6 6 7 7 7 7 7 7 7 6 6 5 5 4 3 2 1
16 15 12 11 10 11 10 9 8 8 9 9 9 10 10 10 10 10 10 10 12 14 15 15 15 15 14 13 12 10 10 10 10 10 8 10 11 9 9 7 7 6 6 7 5 5 8 13 15 15 15 16 15 15 16 16 15 13 11 9 7 6 7 6 6 7 6 6 5 5 5 6 6 6 6 6 7 7 7 7 6 6 6 4 3
15 14 12 11 11 10 9 8 7 7 8 7 8 9 9 10 10 11 11 12 12 13 14 14 14 14 14 13 12 11 10 9 9 8 7 9 11 11 9 7 7 7 7 7 5 3 5 11 16 15 15 16 16 15 16 17 17 15 13 11 8 6 7 6 6 6 6 5 4 4 4 4 4 4 4 5 5 4 5 6 7 8 8 7 6
14 13 12 11 10 9 8 7 6 6 6 5 6 7 8 10 10 11 11 12 13 12 13 13 13 13 14 13 12 11 11 10 9 8 8 9 9 11 9 7 9 9 8 8 5 4 5 10 16 17 16 16 16 16 16 17 18 17 15 13 10 8 7 7 7 6 5 5 4 3 2 2 2 2 2 3 3 2 1 1 3 5 6 7 7
13 12 11 9 9 8 7 6 5 5 4 4 4 5 7 9 10 10 11 12 13 13 13 13 13 14 13 14 13 10 10 10 9 10 10 9 8 10 10 9 11 11 10 8 6 4 4 9 16 18 18 17 17 16 16 16 17 18 17 15 11 9 8 7 7 6 4 3 3 2 1 1 1 1 2 2 2 2 3 3 2 1 2 4 5
14 12 10 9 8 7 7 6 6 5 4 4 4 5 6 8 9 9 10 12 13 14 13 12 13 14 13 13 13 11 11 10 11 13 11 10 9 10 11 11 12 12 10 9 7 6 4 8 16 19 19 17 16 16 16 16 16 17 18 16 13 11 9 8 8 7 5 3 2 1 0 1 1 1 1 1 2 2 3 3 4 3 2 2 2
14 11 9 8 7 7 7 7 6 5 4 4 4 6 7 8 9 9 10 11 12 13 13 12 13 14 13 13 14 13 13 11 13 14 11 12 13 13 13 12 13 12 10 8 6 5 4 6 14 18 18 16 15 14 15 15 14 15 17 17 15 13 11 10 9 8 6 4 3 2 2 2 1 0 0 1 1 2 2 3 3 3 2 2 2
13 11 8 7 6 6 6 6 6 4 3 3 3 4 7 9 10 10 10 12 13 13 13 12 12 13 13 12 13 13 13 12 13 14 12 14 15 16 16 14 13 12 10 8 6 4 1 4 10 14 14 13 12 11 11 12 13 14 15 16 16 15 13 12 11 9 8 6 5 5 4 4 3 2 1 0 1 2 2 2 2 2 2 2 2
13 10 9 7 6 5 4 4 4 4 3 3 2 3 6 8 10 10 11 12 13 13 13 13 12 12 12 11 12 13 13 14 15 15 14 14 15 15 16 16 14 12 11 9 7 4 3 5 10 11 11 11 9 9 9 10 11 13 15 16 17 17 16 15 13 11 10 8 7 7 6 5 4 3 2 1 1 2 3 3 3 3 3 2 2
13 11 9 8 6 4 3 2 2 2 2 2 2 4 6 7 8 9 10 10 11 12 13 14 14 12 11 12 12 13 14 15 16 15 13 12 11 12 15 18 15 12 12 10 9 7 5 7 10 12 11 11 10 9 9 9 10 11 14 15 17 18 19 18 16 14 12 10 9 8 7 6 5 4 3 2 2 2 2 4 4 4 4 4 2
13 11 10 9 7 5 4 2 1 1 1 1 3 6 7 7 6 7 9 10 11 12 12 13 16 14 12 12 12 13 13 14 15 14 12 9 8 9 13 17 15 13 12 11 11 10 8 8 10 11 11 11 11 9 9 10 10 10 13 15 16 19 21 20 18 15 13 12 10 9 8 7 6 5 5 4 4 3 2 3 4 4 5 5 5
13 12 12 10 7 5 4 3 2 1 1 1 3 6 7 6 6 6 7 8 9 10 8 8 10 10 10 10 10 11 12 12 12 12 12 10 7 7 11 16 17 16 13 11 12 11 10 10 10 10 10 10 11 10 9 10 10 10 12 13 14 18 21 20 18 15 13 11 10 9 8 7 6 6 6 6 5 4 3 3 4 4 4 5 6
13 12 12 10 8 6 5 4 3 3 2 2 3 4 6 6 6 6 6 7 6 6 5 4 4 5 6 7 8 8 9 10 10 11 11 9 8 8 11 16 18 16 16 15 14 14 13 12 11 11 11 11 12 11 11 11 11 11 11 12 13 14 17 17 15 12 10 9 8 8 7 7 7 6 6 6 6 6 5 4 4 4 3 4 5
13 13 13 11 8 7 6 5 5 4 3 3 3 4 5 5 6 6 6 6 5 5 4 4 4 4 4 4 5 5 6 7 9 10 10 8 8 9 11 14 16 18 19 19 17 16 15 13 13 13 13 14 14 14 14 14 12 12 12 12 13 13 14 13 12 11 9 8 8 7 7 6 6 6 6 5 5 6 6 5 5 5 4 3 3
15 15 15 12 8 7 7 7 7 6 5 4 4 4 4 4 5 6 6 6 6 5 4 4 4 5 4 4 4 3 3 3 4 5 6 6 7 8 9 10 13 17 20 20 20 18 17 16 14 14 16 16 15 16 17 16 14 14 14 14 14 14 14 13 13 12 11 9 8 8 8 7 6 6 6 6 6 6 7 7 7 7 6 4 3
18 17 17 15 11 9 8 9 8 7 6 5 4 3 3 4 4 5 6 7 7 6 6 6 6 7 7 7 7 6 5 4 3 4 4 5 5 6 9 9 11 14 16 19 20 18 17 16 14 14 17 18 17 18 18 19 18 16 16 16 15 15 16 15 15 14 14 12 11 11 10 9 8 7 6 6 6 6 7 8 8 9 9 7 6
20 20 18 17 14 11 10 10 8 8 7 5 5 4 4 4 4 5 5 5 5 6 6 6 6 7 7 8 9 9 9 7 6 6 5 5 5 6 8 8 8 9 10 12 15 16 16 15 12 10 15 17 16 18 19 19 19 16 16 16 16 16 17 18 17 17 16 15 14 13 12 11 9 8 7 7 7 6 7 7 9 10 11 10 8
23 22 20 18 15 12 12 11 8 7 7 5 5 6 5 5 5 6 6 5 5 5 4 4 3 3 3 4 5 6 8 7 7 6 6 6 6 7 8 8 7 7 9 9 9 12 13 15 14 11 13 14 12 15 17 15 14 14 15 17 17 16 16 17 17 17 17 18 17 16 14 13 11 9 8 9 9 9 9 9 9 9 11 12 11
25 24 22 19 16 14 13 12 8 6 6 5 5 7 6 6 7 7 7 7 7 7 6 6 5 4 3 1 1 2 4 6 6 5 5 5 6 6 7 7 7 7 9 10 8 8 9 13 15 15 16 15 12 14 14 13 13 12 12 14 15 15 15 16 16 15 16 17 17 17 16 15 13 12 11 11 11 11 11 11 11 10 10 12 12
27 26 24 21 18 16 14 13 9 6 7 7 7 7 7 7 8 8 9 8 8 8 7 7 6 6 5 5 3 2 1 3 4 4 4 4 4 4 4 5 5 5 6 7 7 6 5 7 11 15 19 17 16 15 15 16 14 11 10 11 12 13 14 15 15 13 14 15 16 18 17 17 16 15 14 14 14 13 13 13 13 13 12 11 11
30 29 26 23 21 17 15 14 11 8 8 8 9 9 8 8 9 9 9 9 9 9 9 8 8 7 7 7 7 6 4 1 1 2 3 3 3 3 3 3 3 3 4 4 4 4 4 4 5 10 15 16 16 16 17 18 16 13 11 9 10 11 11 13 13 13 13 13 13 16 16 16 17 17 17 17 16 15 15 14 14 13 12 12 12
33 31 29 26 22 18 16 14 13 11 9 9 9 9 8 8 9 11 10 10 10 9 8 8 8 8 8 8 8 8 7 6 4 2 1 1 2 2 3 3 3 3 4 3 3 4 4 3 3 5 7 9 10 12 15 16 16 16 13 11 9 9 9 11 12 12 12 12 12 13 14 14 14 16 17 17 15 14 14 14 14 14 13 13 14
35 33 31 27 23 19 17 15 14 13 11 9 8 9 8 7 8 10 11 11 10 8 8 7 7 8 8 8 8 8 8 9 8 7 6 4 3 3 3 3 2 2 3 3 3 4 4 4 5 5 5 5 6 8 10 12 14 15 15 15 13 11 11 11 11 11 14 15 13 11 11 11 10 10 12 13 13 13 11 10 10 11 12 13 14
38 34 33 29 25 21 18 16 15 14 12 9 8 9 9 7 8 9 10 11 9 7 7 6 6 6 7 7 8 8 9 10 10 10 10 8 7 6 5 4 3 2 2 2 2 3 3 4 5 5 5 4 5 5 6 7 7 8 11 14 14 13 13 13 13 13 14 15 13 11 11 11 9 8 8 9 11 12 11 10 10 9 9 10 11
39 36 35 32 28 23 20 17 16 16 14 11 9 8 9 10 11 11 11 11 9 6 5 5 4 5 5 6 7 7 8 10 11 11 11 11 10 8 7 6 5 4 3 2 2 2 2 3 3 4 4 5 5 5 5 5 5 6 8 9 10 11 10 10 10 11 12 13 15 16 15 14 13 13 13 13 13 14 15 15 15 14 12 11 11
39 37 37 34 30 25 21 19 18 17 16 13 9 8 9 11 12 14 13 11 10 8 6 5 4 4 4 4 5 6 7 9 10 11 11 11 10 10 9 8 7 6 5 4 3 2 1 1 2 3 4 5 6 6 5 6 6 6 6 7 8 8 7 7 8 9 9 9 11 12 14 16 17 17 17 17 17 17 18 17 17 17 16 15 14
40 39 38 35 32 28 24 22 20 18 18 15 11 9 10 11 13 15 14 13 12 10 8 7 5 5 4 4 4 5 5 7 8 9 10 10 10 9 8 7 6 6 5 4 3 3 2 1 1 2 3 4 5 6 6 6 7 7 8 8 8 8 8 8 8 9 9 8 9 10 11 13 16 18 19 19 18 18 18 18 17 17 17 16 15
40 40 40 37 34 31 27 24 20 19 19 17 14 11 10 11 13 15 15 14 13 11 10 9 7 6 5 5 4 4 4 5 5 7 8 8 8 7 6 5 5 4 4 4 3 3 3 3 2 2 1 2 4 5 6 7 7 8 8 9 8 8 9 10 10 10 10 9 10 11 12 12 14 17 18 19 20 19 19 19 17 16 16 16 15
Wind_Direction
164 165 160 164 164 164 164 159 162 164 158 156 155 152 147 143 137 126 119 119 127 136 145 155 162 166 171 174 173 171 160 159 154 143 146 149 146 146 146 143 141 140 139 139 138 138 137 135 135 134 139 149 132 119 118 110 109 112 122 126 126 126 129 131 130 129 127 126 127 124 120 115 111 108 104 101 96 91 86 80 76 73 71 69 65
163 161 159 164 164 167 163 158 163 161 156 155 155 152 148 144 136 126 121 120 127 131 140 151 159 166 172 172 168 165 162 161 155 149 149 148 146 142 143 141 141 142 143 146 146 147 146 145 146 146 151 161 147 136 133 124 119 120 130 131 129 130 132 135 134 132 129 129 130 126 121 118 114 112 108 103 96 91 87 81 75 69 68 67 64
161 158 157 164 166 166 161 161 165 160 156 156 155 151 148 143 136 129 126 125 128 128 133 141 149 156 162 161 160 162 162 159 156 153 149 147 145 140 139 139 142 146 149 154 157 160 161 163 163 158 157 170 162 147 141 137 133 133 142 139 134 132 134 138 136 134 132 133 131 127 124 122 118 116 112 106 98 92 86 79 71 64 62 60 59
161 156 156 162 167 165 161 167 168 160 156 157 155 151 148 142 138 133 130 130 129 127 127 131 137 143 149 151 154 157 157 155 154 152 148 147 143 138 135 131 134 140 149 155 162 169 178 183 179 171 168 177 170 152 146 145 143 144 153 148 138 135 139 142 140 136 135 135 132 130 128 125 123 120 116 109 102 95 87 79 70 64 59 54 52
161 157 156 159 167 169 167 171 168 162 158 158 157 154 151 146 142 136 133 134 131 127 126 126 129 136 142 147 151 154 154 153 151 147 145 142 136 133 128 124 121 123 134 144 156 169 186 189 173 167 169 177 173 159 153 153 152 150 159 154 141 137 142 143 142 141 139 138 135 134 132 131 129 125 121 115 108 98 89 80 70 62 55 48 47
161 158 154 156 165 172 169 170 169 163 159 159 159 156 154 151 146 139 137 136 133 127 126 126 126 132 138 144 150 154 153 151 151 145 141 137 130 125 122 122 117 111 115 123 138 158 180 177 161 160 160 166 172 167 161 161 160 154 161 160 147 140 141 140 142 144 141 139 139 137 136 137 134 130 126 119 111 103 92 82 71 60 50 42 42
163 158 155 157 163 171 169 171 171 163 160 160 160 159 158 155 149 143 139 138 135 129 128 128 126 131 139 145 150 153 153 153 154 149 144 140 132 125 121 120 120 116 112 112 116 142 171 164 160 162 156 156 166 169 165 165 164 156 161 165 154 144 141 139 141 142 141 142 142 141 140 140 140 137 131 122 114 107 97 86 74 61 48 38 37
163 159 159 159 159 170 171 171 173 165 161 160 161 161 161 159 152 145 141 141 138 134 131 130 130 134 141 148 152 154 155 156 156 154 152 147 139 131 123 119 119 119 119 117 110 129 168 165 163 164 160 157 162 169 167 165 165 158 160 167 155 146 143 141 141 140 141 145 145 144 142 142 144 144 139 131 121 110 100 92 81 64 51 38 34
163 161 160 159 159 167 170 170 172 166 162 160 163 165 165 162 155 150 144 144 143 139 135 133 134 138 143 149 155 159 159 161 160 160 160 155 148 139 129 122 120 122 126 125 121 132 163 165 164 166 164 158 159 165 167 165 164 158 160 165 156 147 144 143 142 141 143 145 146 146 144 143 146 149 147 142 133 122 110 102 92 71 55 40 33
162 161 158 158 160 163 168 173 171 166 164 161 164 170 169 166 160 155 148 147 148 145 143 140 139 140 146 152 157 163 164 168 168 166 167 164 157 147 137 130 126 127 130 132 131 139 166 166 163 167 164 159 159 162 162 160 156 152 155 159 153 146 143 144 144 144 147 147 146 148 147 146 147 150 152 150 145 140 131 120 108 88 67 47 35
163 161 158 160 160 158 164 173 172 168 170 165 164 173 172 169 165 161 154 152 154 153 153 150 147 146 149 153 158 164 168 174 177 174 173 172 166 155 145 141 138 133 135 137 135 138 161 163 162 172 172 162 156 158 155 149 147 143 145 148 147 145 144 145 147 149 150 149 147 149 150 149 149 151 154 155 152 150 146 140 129 111 87 58 38
164 161 160 162 159 156 162 172 175 172 174 172 169 173 173 171 169 167 164 160 160 160 161 159 155 153 151 153 155 160 166 172 176 175 171 169 167 159 155 152 146 143 142 140 138 140 143 143 149 171 179 165 155 159 154 145 142 139 139 141 142 144 145 147 149 151 154 154 151 152 155 154 153 153 156 157 157 157 155 150 146 139 121 83 45
163 162 162 161 159 157 163 171 177 175 174 177 176 174 174 175 174 172 172 169 168 166 166 167 163 158 154 156 153 154 161 161 166 172 171 167 163 160 162 160 154 156 151 143 140 140 139 139 148 165 187 178 172 167 157 147 142 139 138 138 139 141 144 146 149 153 157 159 157 157 160 161 159 157 158 159 161 162 162 158 157 158 148 120 58
165 162 160 158 158 156 161 170 179 182 176 177 181 180 178 180 181 179 178 177 174 171 170 172 170 163 160 162 158 159 160 153 157 165 167 169 166 166 169 167 167 167 159 150 144 144 146 151 162 180 194 191 190 176 161 153 146 142 140 140 139 138 141 143 147 153 157 160 160 160 162 166 166 163 163 163 166 168 169 166 165 166 160 144 77
169 163 159 155 155 153 157 167 176 184 182 179 182 185 183 183 186 186 185 184 179 176 176 179 177 174 171 171 171 171 171 163 163 167 168 172 171 174 175 171 174 174 170 162 158 164 164 168 176 191 194 189 199 187 171 160 151 147 144 142 141 136 135 136 139 147 154 159 161 162 165 171 172 171 171 169 171 172 174 173 169 168 165 153 90
175 168 161 156 154 154 156 164 174 179 182 182 181 183 183 182 187 190 191 190 187 183 182 184 184 183 182 182 184 181 183 182 177 174 172 181 183 182 181 176 174 175 182 180 174 188 187 185 191 197 199 194 196 194 182 169 157 151 149 144 143 137 132 131 132 138 148 158 161 164 169 175 179 181 181 178 175 173 174 174 170 168 166 151 98
179 171 162 159 156 157 159 164 171 175 179 183 182 178 179 184 188 192 194 194 194 192 189 190 190 191 189 191 191 185 190 190 188 187 180 190 193 185 188 187 179 179 189 192 188 197 204 204 209 208 206 205 202 195 185 178 167 155 152 147 144 141 134 131 130 131 137 149 160 167 170 176 182 188 193 187 175 166 169 175 175 169 161 126 91
178 170 162 161 157 158 162 164 167 170 173 178 183 181 180 187 192 194 197 199 199 198 197 197 195 196 198 199 195 194 201 195 196 206 196 197 201 196 200 197 187 192 196 197 201 206 210 211 216 218 213 211 217 218 200 185 175 161 153 150 146 142 138 134 128 127 130 136 147 162 168 171 176 184 195 192 164 145 156 180 201 201 34 30 68
174 164 158 160 159 159 161 162 164 164 164 163 171 179 180 186 193 195 199 204 205 203 201 199 198 201 206 205 200 204 211 203 205 218 213 208 215 218 213 204 197 206 208 204 211 213 210 209 213 219 219 215 216 221 227 211 181 167 156 151 149 143 139 136 130 125 125 129 133 143 159 164 167 170 175 171 154 143 158 196 236 311 359 25 53
171 162 157 160 161 160 159 157 160 163 161 153 153 166 175 182 191 195 198 203 206 206 204 202 203 207 210 205 205 213 214 209 216 221 220 224 235 238 224 214 215 218 219 213 215 216 213 210 211 216 219 218 217 215 219 231 204 175 162 153 149 146 143 141 135 128 124 128 131 133 145 154 158 161 161 159 156 155 165 194 214 222 32 48 55
171 165 161 164 164 161 161 161 163 166 164 155 149 157 168 174 185 193 196 200 204 206 204 203 205 211 210 203 210 220 217 217 229 225 221 235 245 246 231 220 217 217 219 216 216 219 219 214 213 216 219 218 217 217 213 219 226 198 172 158 151 151 152 150 143 134 127 128 132 134 140 144 147 151 155 155 157 161 169 186 194 188 166 86 66
171 168 166 168 168 165 164 168 173 174 172 164 154 159 168 169 179 189 193 198 200 204 203 200 203 208 209 207 213 221 222 227 233 226 221 229 237 235 225 222 216 213 213 217 217 217 220 216 215 218 219 218 216 218 216 214 225 220 191 173 162 160 163 157 148 140 132 129 130 134 138 138 142 146 152 158 159 164 173 182 183 185 181 138 90
173 173 171 170 172 173 171 175 178 180 180 173 165 168 173 172 177 185 190 197 193 196 199 199 201 206 209 212 212 215 224 226 224 224 224 229 235 221 215 220 211 208 209 218 216 208 214 215 217 218 215 216 213 215 218 216 223 229 218 204 190 176 175 170 155 145 138 133 130 133 137 137 141 141 150 163 167 173 179 188 190 193 202 193 142
177 178 178 174 175 177 179 183 185 188 186 185 181 178 180 179 181 186 191 195 191 194 197 197 203 209 211 211 209 212 223 222 219 225 230 240 243 223 213 215 208 208 209 215 210 195 205 212 216 219 215 214 212 212 217 218 220 227 232 232 225 199 189 185 168 155 145 138 134 133 136 138 140 138 146 163 174 183 189 197 201 202 216 236 256
180 182 183 180 180 182 186 190 191 194 194 197 198 192 190 188 189 193 195 194 193 196 199 202 209 214 212 210 209 216 225 223 226 229 231 248 246 223 214 220 216 216 211 210 205 192 203 210 214 218 217 216 213 210 214 220 222 226 232 240 242 216 199 199 187 172 157 147 142 139 138 140 140 136 143 158 171 186 196 204 208 211 219 228 240
178 181 181 182 185 185 187 192 192 194 199 204 207 208 204 201 199 199 199 198 199 200 203 209 214 216 215 212 211 222 230 226 233 234 237 264 255 222 213 227 229 224 218 214 209 204 211 213 214 215 217 221 221 213 211 217 223 227 232 240 245 228 207 209 207 188 169 158 156 152 145 141 136 129 132 140 151 172 193 207 212 214 220 225 229
171 172 174 178 182 186 190 193 195 194 200 202 203 209 211 213 211 207 203 202 207 208 208 214 215 216 219 216 212 220 231 229 232 233 238 264 256 221 208 218 229 225 220 223 227 240 230 216 214 213 215 223 226 222 215 214 221 227 231 236 242 235 218 214 218 209 184 164 163 164 151 136 124 107 102 104 108 110 108 199 217 220 224 227 230
162 161 162 165 170 177 183 184 186 187 193 198 200 208 213 218 219 216 211 207 209 211 213 217 217 221 225 223 218 216 224 231 235 232 234 247 248 226 211 210 223 222 218 227 242 262 256 221 213 209 211 220 225 226 223 218 219 225 229 232 235 235 228 221 220 220 211 180 165 165 149 108 82 71 57 59 58 53 39 26 12 295 247 237 234
155 152 150 154 159 163 168 170 172 176 187 203 216 225 225 223 222 221 217 216 214 214 218 219 219 222 226 227 223 220 221 230 240 237 240 255 258 241 223 214 219 220 216 226 248 274 278 223 209 205 207 215 223 226 227 225 222 224 228 231 231 232 229 223 219 219 230 225 191 181 151 67 56 71 46 32 33 32 28 22 16 16 353 312 270
151 149 148 149 156 162 168 171 174 179 189 204 218 224 227 225 223 222 219 220 220 220 224 223 222 220 222 227 226 225 225 230 240 244 254 267 266 250 232 218 217 221 218 224 247 273 286 219 203 203 204 210 221 226 228 230 227 227 229 230 229 230 228 224 221 221 232 244 251 272 292 313 324 340 54 35 26 27 30 31 17 18 17 358 341
151 146 144 144 154 164 172 175 181 191 202 213 224 216 216 218 216 215 218 221 220 222 226 227 226 221 219 227 230 230 230 233 240 249 263 277 277 259 236 219 217 219 214 219 235 248 264 189 192 195 198 203 214 221 224 227 229 231 233 232 228 228 229 227 224 225 233 244 261 277 284 291 291 287 283 358 18 18 11 13 7 5 17 16 14
146 136 136 139 140 146 163 176 187 201 212 220 235 204 200 209 210 209 214 221 222 223 225 225 224 223 221 226 235 238 238 240 243 250 265 283 287 263 232 217 218 216 209 213 222 215 166 156 173 180 185 191 199 206 211 219 227 233 236 236 232 231 233 232 230 231 237 248 265 275 275 275 267 265 283 304 349 16 1 353 349 348 2 16 33
140 136 139 127 118 120 131 156 190 210 219 216 190 168 181 197 204 208 213 218 226 229 228 225 220 220 222 226 235 240 242 246 249 256 270 286 290 267 231 215 214 211 206 210 215 211 181 158 166 173 178 184 191 200 206 212 222 231 237 239 235 234 236 237 237 236 242 253 264 268 265 262 257 262 281 295 314 347 357 349 343 343 349 346 341
140 139 139 125 123 131 133 143 171 240 223 191 147 150 167 185 192 202 209 210 220 229 232 228 221 218 220 227 236 240 243 249 257 262 273 289 288 262 229 215 213 209 205 209 213 212 192 171 172 178 184 192 200 207 212 216 221 227 235 239 236 234 235 237 240 243 249 256 258 261 260 256 257 267 277 288 300 312 332 337 333 336 341 335 333
153 143 140 140 149 159 163 171 176 218 195 151 139 146 160 175 187 200 207 208 213 225 233 227 222 221 221 227 236 242 245 250 260 265 272 281 271 243 218 213 217 213 209 211 213 214 204 191 187 191 200 210 218 226 228 227 229 229 231 237 239 236 236 237 242 249 251 249 250 253 254 255 258 264 270 278 285 289 300 308 310 318 329 337 341
169 163 158 160 174 188 196 198 197 202 175 152 141 145 161 178 200 216 223 226 226 230 239 237 234 232 224 228 238 245 249 250 258 265 267 263 244 233 220 216 218 215 212 213 212 214 213 210 208 210 219 228 235 241 243 238 237 240 235 234 238 238 238 239 241 243 240 235 238 241 240 246 250 254 260 267 276 280 280 282 285 290 310 333 344
184 185 183 177 185 203 212 210 206 200 175 158 149 152 169 187 207 223 231 238 243 245 248 251 252 251 239 240 247 252 257 256 256 257 256 245 229 232 232 226 220 215 215 214 213 214 216 217 219 225 233 238 242 247 250 245 239 241 240 233 232 232 232 233 232 231 233 233 234 236 236 241 247 252 256 260 271 278 276 271 269 268 275 304 328
199 198 198 195 199 215 221 214 204 192 174 162 159 159 168 188 205 216 224 231 240 245 243 244 249 256 260 253 255 258 255 256 251 244 243 240 234 234 241 237 221 216 218 216 216 219 221 225 231 238 244 248 250 252 254 255 252 246 243 238 232 230 229 229 232 236 240 244 244 247 248 249 253 258 261 264 266 270 273 270 265 265 266 266 284
209 207 205 205 210 219 223 216 203 189 177 166 160 150 147 164 185 200 211 219 227 236 241 244 246 251 257 257 259 262 257 248 230 226 229 234 237 232 235 238 228 224 222 218 220 225 228 237 249 258 261 257 252 255 259 266 270 259 247 243 238 236 236 236 239 241 245 250 256 260 260 258 258 261 266 270 271 269 269 267 264 264 268 265 260
215 213 210 207 211 218 219 211 199 188 180 167 151 132 129 143 155 172 186 198 209 218 226 231 236 240 246 250 253 258 260 258 243 232 230 228 229 230 231 235 234 229 226 224 229 234 237 244 251 268 275 263 252 257 263 270 274 263 248 245 244 242 242 244 245 247 250 254 258 261 265 265 262 261 264 266 272 276 276 275 268 261 261 263 258
217 216 214 210 212 217 216 205 190 179 177 169 140 122 118 131 145 152 157 160 167 173 174 175 184 196 213 230 239 251 260 264 257 242 233 226 221 226 232 238 240 233 232 236 239 238 240 243 243 244 249 245 246 255 260 267 271 263 249 242 244 245 242 245 249 252 256 257 257 258 261 265 265 262 261 263 267 272 279 284 281 270 258 258 259
220 219 216 211 212 216 214 205 187 166 168 167 143 131 126 132 141 142 140 138 139 139 130 119 112 109 103 102 196 252 257 259 260 246 234 227 217 219 227 234 238 227 225 233 239 242 241 245 243 229 220 222 235 246 253 261 265 265 262 251 247 247 243 245 252 257 261 262 260 259 259 261 264 265 262 263 266 267 272 276 281 281 268 259 260
222 222 219 211 212 215 210 202 189 168 161 161 152 143 140 141 143 141 134 129 128 124 116 108 102 98 93 85 80 65 281 257 250 238 227 219 206 205 210 219 226 208 202 217 232 243 242 241 233 216 210 215 223 234 246 254 260 268 276 271 259 254 252 252 256 262 273 278 270 263 263 264 266 267 266 266 266 266 267 271 274 276 273 266 260
221 222 219 212 212 214 207 197 188 176 163 164 162 154 154 153 149 147 138 130 126 120 112 107 102 96 90 83 76 69 59 42 252 228 218 211 197 184 182 188 194 177 169 186 210 228 237 245 232 214 213 216 215 224 238 247 257 264 269 274 264 257 256 258 269 278 285 294 286 270 265 266 267 266 267 269 268 266 266 268 270 268 268 264 260
222 223 222 217 214 212 206 196 189 181 171 175 176 165 164 165 159 158 155 143 132 125 116 107 102 96 88 81 74 69 69 69 71 76 111 165 175 164 160 166 167 156 155 171 196 211 218 224 226 212 215 222 218 224 235 241 249 254 255 256 252 250 251 260 281 290 287 294 298 284 270 268 272 268 266 267 266 264 265 266 264 262 260 258 256
223 224 223 219 215 212 206 197 191 185 179 183 186 175 171 172 168 166 161 151 141 134 127 116 107 100 91 86 79 75 76 77 77 74 74 79 93 118 131 145 156 156 156 173 195 205 205 204 211 211 212 224 218 221 232 235 241 247 246 242 242 245 251 260 274 286 291 294 296 291 281 277 279 277 269 266 263 262 263 266 265 259 256 255 255
223 224 223 219 215 213 208 199 193 189 185 189 192 182 171 164 163 161 158 156 152 144 138 130 117 105 96 92 87 84 82 83 83 81 81 81 82 92 103 114 125 131 139 159 187 202 205 200 206 211 209 210 202 206 220 226 234 231 220 225 235 243 250 257 263 272 284 292 289 283 281 276 273 277 273 266 264 264 265 271 278 274 265 264 264
222 224 224 219 215 213 208 201 197 192 189 193 198 187 171 165 163 162 160 163 163 158 154 147 133 116 103 96 92 89 88 89 91 90 90 90 90 92 93 94 97 97 97 105 129 161 194 206 209 211 210 209 204 204 207 207 207 194 190 206 225 239 249 253 256 261 267 281 287 284 280 274 268 268 269 268 267 269 273 277 283 285 280 277 276
222 224 224 219 215 212 207 204 200 196 194 196 201 190 174 171 172 168 164 167 171 174 175 170 164 146 122 106 97 92 91 94 97 98 98 97 97 97 95 94 92 89 86 82 82 85 102 212 231 227 222 220 220 220 216 210 209 205 201 206 217 231 244 248 250 253 255 268 284 287 284 279 273 269 267 268 268 269 272 276 281 285 286 283 280
221 223 223 219 216 212 209 207 203 199 198 200 204 198 182 178 180 176 171 173 178 182 187 189 192 184 163 140 118 104 98 101 104 104 104 103 102 102 101 101 98 94 88 79 67 55 50 37 319 268 249 238 235 237 236 233 232 233 232 231 234 239 244 250 254 252 252 263 275 282 284 282 279 273 269 266 266 268 271 273 276 280 283 284 283
220 221 221 218 216 214 211 209 206 204 202 204 208 206 195 189 187 184 181 181 184 188 193 198 203 201 188 174 154 134 118 112 115 114 113 112 109 107 107 104 101 97 91 83 74 63 58 55 41 17 318 277 256 253 252 252 251 253 254 253 253 252 252 257 261 259 258 265 274 281 285 286 283 280 277 271 266 269 273 275 276 277 277 280 284